Regional Weather Roundup
Issued by NWS Charleston, SC

Current Version | Previous Version | Graphics & Text | Print | Product List | Glossary On
Versions: 1 2 3 4 5 6 7 8 9 10 11 12 13 14 15 16 17 18 19 20 21 22 23 24 25 26 27 28 29 30 31 32 33 34 35 36 37 38 39 40 41 42 43 44 45 46 47 48 49 50
000
ASUS42 KCHS 231912
RWRCHS

REGIONAL WEATHER ROUNDUP
NATIONAL WEATHER SERVICE CHARLESTON SC
200 PM EST THU NOV 23 2017

NOTE: "FAIR" INDICATES FEW OR NO CLOUDS BELOW 12,000 FEET WITH NO
SIGNIFICANT WEATHER AND/OR OBSTRUCTIONS TO VISIBILITY.

NOT ALL STATIONS ARE QUALITY CONTROLLED. USE DATA WITH CAUTION...
ESPECIALLY DEWPOINT OBSERVATIONS.

SCZ027-030-031-034>040-042>050-232000-
...SOUTHEAST SOUTH CAROLINA...

CITY           SKY/WX    TMP DP  RH WIND       PRES   REMARKS
N CHARLESTON   LGT RAIN  47  46  97 NE8       30.02F
WATERFRONT PRK NOT AVBL
JOHNS ISLAND   LGT RAIN  48  48 100 N13       30.00F
PINOPOLIS        N/A     48  43  81 NE9       29.96F
MONCKS CORNER  LGT RAIN  45  43  93 NE5       30.02F
SUMMERVILLE    DRIZZLE   45  45 100 N7        30.03F
BEAUFORT MCAS  LGT RAIN  50  50 100 NE10      30.00F FOG
BEAUFORT ARPT  RAIN      50  48  93 N12       29.99F
HILTON HEAD IS NOT AVBL
WALTERBORO     DRIZZLE   46  45  93 NE6       30.02F
ALLENDALE      MOCLDY    50  41  71 N7        30.01F

...SOUTHERN MIDLANDS AND PEE DEE...

CITY           SKY/WX    TMP DP  RH WIND       PRES   REMARKS
GEORGETOWN     DRIZZLE   46  45  93 N5        30.04F
KINGSTREE      CLOUDY    46  36  66 N5        30.04F
ORANGEBURG     CLOUDY    49  37  63 NE10      30.03F
BARNWELL         N/A     52  41  66 N9        30.02F
AIKEN          FAIR      52  37  58 N8        30.07S
MANNING        FAIR      46  36  66 MISG      30.03F
COLUMBIA       CLOUDY    55  37  50 N3        30.05F
SUMTER         CLOUDY    49  33  53 NE9       30.02F
FLORENCE       CLOUDY    50  35  56 N8        30.06F
MYRTLE BEACH   CLOUDY    48  40  73 N12       30.04F
N MYRTLE BEACH CLOUDY    49  39  68 N8        30.04F

$$

GAZ063-065-086>088-099>101-113>116-118-119-134>141-150-232000-
...SOUTHEAST GEORGIA...

CITY           SKY/WX    TMP DP  RH WIND       PRES   REMARKS
SAVANNAH ARPT  LGT RAIN  51  50  96 N5        29.99F FOG
HUNTER AAF     RAIN      52  50  92 N5        29.96F
FORT STEWART   LGT RAIN  51  49  94 NE7       29.95F
STATESBORO     CLOUDY    53  45  75 NE5       29.99F
SYLVANIA       CLOUDY    51  46  83 NE7       30.01F
CLAXTON        CLOUDY    53  50  92 N7        29.99F

...CSRA...CENTRAL AND FAR SOUTHEAST GEORGIA...

CITY           SKY/WX    TMP DP  RH WIND       PRES   REMARKS
THOMSON        MOSUNNY   56  37  49 SE6       30.08F
AUGUSTA-BUSH   PTSUNNY   57  40  52 NE7       30.03F
AUGUSTA-DANIEL CLOUDY    57  38  48 N7        30.04F
SWAINSBORO     FAIR      55  43  62 NE8       30.01F
VIDALIA        CLOUDY    55  50  82 NE5       29.98F
EASTMAN        MOCLDY    63  37  38 E6        30.00F
HAZLEHURST     CLOUDY    54  49  84 NE6       29.97F
ALMA           CLOUDY    55  52  89 VRB3      29.95F
WAYCROSS       LGT RAIN  55  52  90 NE7       29.94F
JESUP          LGT RAIN  54  52  94 NE8       29.95F
BAXLEY         CLOUDY    52  52 100 NE7       29.96F
BRUNSWICK      LGT RAIN  55  54  94 N9        29.95F
SAINT SIMONS   LGT RAIN  60  60 100 NE14      29.92F

$$

SCZ027-028-034-036>038-045-046-048>050-GAZ119-141-232000-
...LAKE AND SUPPLEMENTAL COASTAL OBSERVATIONS...

STATION/POSITION TIME  TEMP    WIND        PRES    WAVE   SWELL
                       AIR SEA DIR/SP/G            HT/PER HT/PER/DIR
                 (UTC) (F)     (DEG/KT/KT) (MB)    (FT/S) (FT/S/D)
WINYAH BAY       1745   48      10/  5     1017.0
LAKE MURRAY      1820   52      CALM  /  3 1017.3
ACE BASIN NERRS  1745   49      10/  3     1017.0
FORT PULASKI     1848   54 62   30/ 10/ 12 1015.5F
SAPELO ISLAND    1800   57      40/ 11     1014.0

$$

ANZ835-935-AMZ111-154-330-350-352-354-370-450-454-472-232000-
...C-MAN AND BUOY OBSERVATIONS...

STATION/POSITION TIME  TEMP    WIND        PRES    WAVE   SWELL
                       AIR SEA DIR/SP/G            HT/PER HT/PER/DIR
                 (UTC) (F)     (DEG/KT/KT) (MB)    (FT/S) (FT/S/D)
BUOY 41004       1850   65 75   30/ 17/ 23 1014.4S   7/ 7   3/100/ 9
BUOY 41008       1850   63 67   50/ 19/ 21 1012.9F   6/ 5   2/120/ 9
FOLLY BEACH CMAN 1800   51      10/ 12/ 14 1017.1F
CAPERS NEARSHORE 1808   50 62   30/ 16/ 23 1015.9F
FRIPP NEARSHORE  1808   53 62   20/ 12/ 23 1015.1F


STATION/POSITION TIME  TEMP    WIND        PRES    WAVE   SWELL
                       AIR SEA DIR/SP/G            HT/PER HT/PER/DIR
                 (UTC) (F)     (DEG/KT/KT) (MB)    (FT/S) (FT/S/D)
5E ST. MARYS GA  1830      67                N/A     7/ 6   2/100/11
FRYING PAN BUOY  1850   60 72   30/ 19/ 23 1015.8R   6/ 9   3/120/ 9
BUOY 41025       1850   56 72  360/ 16/ 21 1017.4F   5/ 9   5/140/ 9
CAPE LOOKOUT NC  1800           10/ 13/ 16 1018.1F
BUOY 41002       1850   72 76   60/ 12/ 16 1013.2F   8/ 8   7/ 70/ 8
BUOY 41010       NOT AVBL
ST AUGUSTINE FL  1900   67 69   40/ 18/ 19 1010.9F


$$




USA.gov is the U.S. government's official web portal to all federal, state and local government web resources and services.